sat.trackr.live / text

‹ back to catalog

AAC-AIS-SAT2

NORAD 56996 · 2023-084BY

PAYLOAD ACTIVE UNKNOWN

§ Identity

Operator
Country
UK
Launch date
2023-06-12
Launch site
AFWTR
Launch vehicle
Mass (kg)
RCS (m²)

External: N2YO · Heavens-Above · Gunter

§ Orbital elements

Epoch: 2026-05-25T04:36:08.917632Z

Period
96.95 min
Inclination
98.1452°
Eccentricity
0.0057430
Mean motion
14.85333992 rev/d
Perigee alt
572.4 km
Apogee alt
652.7 km
Semi-major
6,990.7 km
B*
4.0601e-4
RAAN
284.5620°
Arg perigee
171.5049°
Mean anomaly
188.7151°
Rev number
14,996

§ Raw data

AAC-AIS-SAT21 56996U 23084BY  26145.19176988  .00003536  00000+0  40601-3 0  99992 56996  98.1452 284.5620 0057430 171.5049 188.7151 14.85333992149966

JSON: /api/v1/satellites/56996 · /tle

For live sub-satellite position, see the globe view (requires WebGL).

§ Visibility from observer

Set your observer location to see the next 7 days of passes ≥ 10°. The values pass through the URL so the page stays shareable.

No JS? Fill the form by hand. The geolocation button needs JavaScript.

§ Radio — SatNOGS DB

ModeDescriptionDownlinkUplink
BPSK S-band telemetry 2.241 GHz

1 transmitter · refreshed weekly from db.satnogs.org